This demonstration page uses our WeatherBlox Daily Observations layout. Learn more.

Left ArrowRight Arrow

Hourly Observations for June 4, 2016

Temp ( °F °C ) Dew Point ( °F °C ) Humidity (%) Winds ( mph kmh ) Pressure ( in mb ) Visibility ( mi km ) Precip ( " mm )
12:51 am 00:51 Clear 84 28.9 18 -7.8 8 8 NNW 14 22 29.72 1007 10 16 0.00 0.00
1:51 am 01:51 Clear 82 27.8 21 -6.1 10 10 NW 9 15 29.72 1006 10 16 0.00 0.00
2:51 am 02:51 Clear 84 28.9 20 -6.7 9 9 NNW 9 15 29.72 1006 10 16 0.00 0.00
3:51 am 03:51 Clear 74 23.3 20 -6.7 13 13 WNW 7 11 29.73 1007 10 16 0.00 0.00
4:51 am 04:51 Clear 72 22.2 19 -7.2 13 13 Calm 29.76 1008 10 16 0.00 0.00
5:51 am 05:51 Sunny 72 22.2 20 -6.7 14 14 S 6 9 29.79 1009 10 16 0.00 0.00
6:51 am 06:51 Sunny 76 24.4 21 -6.1 13 13 S 3 6 29.81 1010 10 16 0.00 0.00
7:51 am 07:51 Sunny 85 29.4 24 -4.4 11 11 SSW 3 6 29.83 1010 10 16 0.00 0.00
8:51 am 08:51 Sunny 90 32.2 23 -5 9 9 SSE 9 15 29.85 1011 10 16 0.00 0.00
9:51 am 09:51 Sunny 93 33.9 27 -2.8 9 9 SE 6 9 29.85 1011 10 16 0.00 0.00
10:51 am 10:51 Sunny 97 36.1 28 -2.2 9 9 VRB 5 7 29.84 1010 10 16 0.00 0.00
11:51 am 11:51 Sunny 100 37.8 37 2.8 11 11 E 8 13 29.80 1009 10 16 0.00 0.00
12:51 pm 12:51 Sunny 102 38.9 35 1.7 10 10 Calm 29.77 1008 10 16 0.00 0.00
1:51 pm 13:51 Sunny 102 38.9 30 -1.1 8 8 SW 6 9 29.75 1007 10 16 0.00 0.00
2:51 pm 14:51 Sunny 105 40.6 29 -1.7 7 7 SSW 12 19 29.71 1006 10 16 0.00 0.00
3:51 pm 15:51 Sunny 106 41.1 28 -2.2 6 6 WSW 13 20 29.70 1006 10 16 0.00 0.00
4:51 pm 16:51 Sunny 106 41.1 27 -2.8 6 6 NNE 6 9 29.68 1005 10 16 0.00 0.00
5:51 pm 17:51 Sunny 104 40 25 -3.9 6 6 W 3 6 29.67 1005 10 16 0.00 0.00
6:51 pm 18:51 Sunny 102 38.9 25 -3.9 6 6 S 5 7 29.67 1005 10 16 0.00 0.00
7:51 pm 19:51 Clear 96 35.6 27 -2.8 8 8 SSE 5 7 29.67 1005 10 16 0.00 0.00
8:51 pm 20:51 Clear 89 31.7 27 -2.8 11 11 WNW 6 9 29.69 1006 10 16 0.00 0.00
9:51 pm 21:51 Clear 85 29.4 25 -3.9 11 11 E 5 7 29.72 1007 10 16 0.00 0.00
10:51 pm 22:51 Clear 83 28.3 22 -5.6 10 10 NE 3 6 29.73 1007 10 16 0.00 0.00
11:51 pm 23:51 Clear 82 27.8 27 -2.8 13 13 NE 7 11 29.73 1007 10 16 0.00 0.00

Powered by AerisWeather